DW4252 Weather Reports


time (UTC)temp
C
wind
direction
speed
KPH
gust
KPH
rain 1hr
cm
rain 24hr
cm
rain mn
cm
humidity
%
barometer
mb
20260505164006 15 46 11.3 16.1 0.00 0.00 0.00 46 1011.5
20260505163008 16 50 11.3 16.1 0.00 0.00 0.00 45 1011.6
20260505162006 16 50 12.9 19.3 0.00 0.00 0.00 45 1011.7
20260505161007 16 49 11.3 17.7 0.00 0.00 0.00 45 1011.6
20260505153006 16 55 14.5 22.5 0.00 0.00 0.00 45 1011.6
20260505152007 16 47 16.1 25.7 0.00 0.00 0.00 45 1011.4
20260505151007 16 51 16.1 25.7 0.00 0.00 0.00 44 1011.5
20260505125006 17 58 17.7 27.4 0.00 0.00 0.00 46 1012.0
20260505124006 17 48 14.5 22.5 0.00 0.00 0.00 48 1011.9
20260505123006 17 44 14.5 24.1 0.00 0.00 0.00 48 1011.9
20260505122006 17 38 17.7 24.1 0.00 0.00 0.00 46 1012.0
20260505121007 17 33 11.3 17.7 0.00 0.00 0.00 48 1012.1
20260505120006 17 38 12.9 17.7 0.00 0.00 0.00 49 1012.0
20260505115006 17 34 11.3 19.3 0.00 0.00 0.00 53 1011.8
20260505114006 17 25 9.7 17.7 0.00 0.00 0.00 53 1011.9
20260505113006 17 22 12.9 19.3 0.00 0.00 0.00 54 1012.0
20260505112006 16 13 12.9 19.3 0.00 0.00 0.00 58 1012.1
20260505111006 16 12 14.5 19.3 0.00 0.00 0.00 58 1012.3
20260505102007 17 8 16.1 20.9 0.00 0.00 0.00 54 1012.3
20260505101006 17 6 12.9 20.9 0.00 0.00 0.00 55 1012.2
20260505100006 16 12 16.1 25.7 0.00 0.00 0.00 63 1012.4
20260505095007 15 15 16.1 22.5 0.00 0.00 0.00 63 1012.3
20260505094006 15 20 16.1 22.5 0.00 0.00 0.00 63 1012.5
20260505093006 16 20 12.9 20.9 0.00 0.00 0.00 64 1012.6
20260505092006 15 18 14.5 20.9 0.00 0.00 0.00 65 1012.6
20260505091008 14 16 12.9 17.7 0.00 0.00 0.00 66 1012.8
20260505090006 13 15 12.9 16.1 0.00 0.00 0.00 69 1012.5
20260505085007 13 18 14.5 22.5 0.00 0.00 0.00 68 1012.6
20260505084006 13 22 14.5 24.1 0.00 0.00 0.00 68 1012.8
20260505083006 13 29 14.5 20.9 0.00 0.00 0.00 72 1012.8
20260505082006 13 37 12.9 20.9 0.00 0.00 0.00 73 1012.8
20260505081006 13 36 12.9 17.7 0.00 0.00 0.00 73 1012.8
20260505080007 13 33 12.9 17.7 0.00 0.00 0.00 74 1012.7
20260505075006 13 19 12.9 17.7 0.00 0.00 0.00 75 1012.9
20260505074006 13 8 11.3 19.3 0.00 0.00 0.00 75 1012.9
20260505072007 12 16 9.7 17.7 0.00 0.00 0.00 77 1012.8
20260505071006 12 18 9.7 12.9 0.00 0.00 0.00 78 1012.9
20260505070006 12 22 9.7 16.1 0.00 0.00 0.00 80 1013.0
20260505065006 12 11 11.3 14.5 0.00 0.00 0.00 80 1012.8
20260505064007 12 9 12.9 19.3 0.00 0.00 0.00 81 1013.1
20260505063007 12 11 9.7 14.5 0.00 0.00 0.00 83 1013.1
20260505062007 12 9 11.3 17.7 0.00 0.00 0.00 84 1013.3
20260505061006 12 17 8.0 11.3 0.00 0.00 0.00 87 1013.1
20260505060007 11 21 8.0 11.3 0.00 0.00 0.00 92 1013.2
20260505055006 11 29 6.4 16.1 0.00 0.00 0.00 93 1013.2
20260505054006 10 32 9.7 16.1 0.00 0.00 0.00 93 1012.9
20260505053007 10 33 8.0 12.9 0.00 0.00 0.00 93 1012.9
20260505052006 10 23 8.0 11.3 0.00 0.00 0.00 93 1012.9
20260505041011 10 21 6.4 11.3 0.00 0.00 0.00 93 1013.1
20260505040006 10 20 3.2 6.4 0.00 0.00 0.00 93 1013.2
20260505035005 10 26 4.8 6.4 0.00 0.00 0.00 93 1013.3
20260505034005 10 42 4.8 6.4 0.00 0.00 0.00 92 1013.4
20260505033006 10 55 3.2 6.4 0.00 0.00 0.00 91 1013.5
20260505032005 10 59 3.2 6.4 0.00 0.00 0.00 91 1013.4
20260505030006 10 55 4.8 8.0 0.00 0.00 0.00 90 1013.5
20260505025006 10 57 3.2 6.4 0.00 0.00 0.00 90 1013.3
20260505024006 10 55 3.2 6.4 0.00 0.00 0.00 90 1013.3
20260505022006 11 62 4.8 8.0 0.00 0.00 0.00 90 1013.3
20260505020005 11 66 6.4 9.7 0.00 0.00 0.00 90 1013.5
20260505015005 11 69 6.4 11.3 0.00 0.00 0.00 90 1013.7
20260505013006 11 69 9.7 16.1 0.00 0.00 0.00 90 1013.8
20260505012006 11 68 9.7 17.7 0.00 0.00 0.00 90 1013.9
20260505011005 11 63 8.0 14.5 0.00 0.00 0.00 90 1014.0
20260505010006 11 58 6.4 9.7 0.00 0.00 0.00 90 1013.6
20260505005006 11 57 6.4 11.3 0.00 0.00 0.00 90 1013.9
20260505004005 11 57 8.0 11.3 0.00 0.00 0.00 90 1014.2
20260505003006 11 61 9.7 12.9 0.00 0.00 0.00 90 1014.3
20260505002006 11 58 6.4 9.7 0.00 0.00 0.00 91 1014.3
20260505001006 11 58 4.8 9.7 0.00 0.00 0.00 91 1014.5
20260505000006 11 53 4.8 8.0 0.00 0.00 0.00 90 1014.6
20260504235006 11 48 6.4 8.0 0.00 0.00 0.00 90 1014.6
20260504234006 11 50 6.4 9.7 0.00 0.00 0.00 89 1014.6
20260504233006 11 52 6.4 9.7 0.00 0.00 0.00 88 1014.5
20260504232006 12 58 3.2 8.0 0.00 0.00 0.00 85 1014.3
20260504231006 12 50 1.6 4.8 0.00 0.00 0.00 85 1014.3
20260504230013 12 56 3.2 6.4 0.00 0.00 0.00 85 1014.4
20260504225006 12 61 4.8 6.4 0.00 0.00 0.00 85 1014.3
20260504224006 12 55 3.2 4.8 0.00 0.00 0.00 85 1014.3
20260504223006 12 69 3.2 4.8 0.00 0.00 0.00 85 1014.4
20260504222006 12 78 3.2 4.8 0.00 0.00 0.00 85 1014.6
20260504221006 12 82 3.2 6.4 0.00 0.00 0.00 86 1014.7
20260504220006 12 85 3.2 6.4 0.00 0.00 0.00 86 1014.6
20260504215005 12 79 4.8 8.0 0.00 0.00 0.00 86 1014.6
20260504214006 12 69 6.4 8.0 0.00 0.00 0.00 86 1014.8
20260504213006 12 62 4.8 9.7 0.00 0.00 0.00 86 1014.7
20260504212006 12 62 6.4 11.3 0.00 0.00 0.00 86 1014.7
20260504211006 12 147 3.2 6.4 0.00 0.00 0.00 86 1014.7
20260504210005 12 184 1.6 3.2 0.00 0.00 0.00 85 1014.7
20260504205006 12 193 1.6 3.2 0.00 0.00 0.00 84 1014.7
20260504204006 12 194 1.6 4.8 0.00 0.00 0.00 84 1014.6
20260504203006 12 196 1.6 3.2 0.00 0.00 0.00 83 1014.6
20260504202006 12 221 1.6 3.2 0.00 0.00 0.00 83 1014.6
20260504201006 12 242 1.6 3.2 0.00 0.00 0.00 82 1014.5
20260504200007 12 270 1.6 4.8 0.00 0.00 0.00 81 1014.4
20260504194006 13 286 1.6 4.8 0.00 0.00 0.00 80 1014.4
20260504193006 13 333 3.2 6.4 0.00 0.00 0.00 79 1014.2
20260504192006 14 24 3.2 6.4 0.00 0.00 0.00 78 1014.1
20260504191007 14 42 3.2 6.4 0.00 0.00 0.00 76 1014.0
20260504190006 14 58 4.8 6.4 0.00 0.00 0.00 76 1013.9
20260504185007 15 58 4.8 6.4 0.00 0.00 0.00 75 1014.0
20260504184006 15 61 4.8 9.7 0.00 0.00 0.00 75 1014.0
20260504182007 15 65 8.0 12.9 0.00 0.00 0.00 74 1013.9
20260504181007 15 70 9.7 16.1 0.00 0.00 0.00 74 1013.8
20260504180007 16 79 6.4 9.7 0.00 0.00 0.00 74 1013.7
20260504174007 16 75 8.0 14.5 0.00 0.00 0.00 74 1014.0
20260504173007 16 93 6.4 12.9 0.00 0.00 0.00 73 1014.0
20260504172006 16 55 6.4 11.3 0.00 0.00 0.00 73 1013.9
20260504171007 16 51 4.8 8.0 0.00 0.00 0.00 70 1013.9